Voltar ao catálogo

LEMUR-2 PEGGY-2004

AtivoCiênciaSSO
NORAD 68479·PAYLOAD·🇱🇺 Luxembourg

Lançado Mar 30, 2026 de Vandenberg Space Force Base

Loading…

Próximas Passagens (próximas 24 horas)

TLE

AtualizadoSource: Space-Track

Época: Sep 14, 2026, 14:49 UTC

1 68479U 26067BR  26257.61752034  .00003505  00000-0  33874-3 0  9996
2 68479  97.7635 214.6776 0001637  35.9193 324.2137 14.93456143 25079

Acompanhe LEMUR-2 PEGGY-2004 em tempo real com AllMySat

Download on the App Store